Simultaneous Nadir Overpasses (SNOs) Predictions

Prediction of SNOs between GOES-16 and NOAA-19 Satellite Orbit:

Table of predicted SNOs for the next 14.0 days since TLE Epoch: 7/24/2021
Index Date Time (GOES-16) GOES-16 Lat,Lon NOAA-19 Lat,Lon Distance(km) Time Diff (sec)
1 07/24/2021 11:47:27 -0.10, -75.22 -0.71, -72.63 296.97 80
2 07/27/2021 00:11:03 0.10, -75.21 -0.45, -77.57 269.82 80
3 07/27/2021 23:56:37 0.10, -75.22 0.20, -74.70 59.10 80
4 07/28/2021 23:44:53 0.11, -75.24 0.91, -71.84 388.11 80
5 07/30/2021 12:20:01 -0.09, -75.30 0.93, -79.60 492.31 80
6 07/31/2021 12:08:17 -0.10, -75.32 0.24, -76.74 163.02 80
7 08/01/2021 11:53:52 -0.10, -75.33 -0.46, -73.88 166.34 80
8 08/02/2021 11:42:07 -0.11, -75.35 -1.10, -71.01 495.75 80
9 08/04/2021 00:17:25 0.09, -75.35 -0.74, -78.81 396.30 80
10 08/05/2021 00:05:40 0.10, -75.37 -0.03, -75.95 66.57 80
11 08/05/2021 23:51:15 0.11, -75.39 0.63, -73.08 263.21 80
